Greenwood, MS

1:19 PM CST on January 18, 2017 (GMT -0600)
Greenwood-Leflore

Weather History for KGWO - March, 2013

Change the Weather History Date:

Monday, March 18, 2013

  Actual Average Record
Temperature  
Mean Temperature 60 °F 56 °F  
Max Temperature 76 °F 68 °F 84 °F (1963)
Min Temperature 44 °F 45 °F 30 °F (1967)
Degree Days  
Heating Degree Days 5 10  
Month to date heating degree days 278 212  
Since 1 July heating degree days 2358 2443  
Cooling Degree Days 0 1  
Month to date cooling degree days 0 12  
Year to date cooling degree days 12 17  
Growing Degree Days 10 (Base 50)    
Moisture  
Dew Point 57 °F    
Average Humidity 76    
Maximum Humidity 93    
Minimum Humidity 59    
Precipitation  
Precipitation 0.12 in 0.13 in 1.93 in (1986)
Month to date precipitation 1.29 2.42  
Year to date precipitation 13.75 11.36  
Sea Level Pressure  
Sea Level Pressure 29.82 in    
Wind  
Wind Speed 10 mph (West)    
Max Wind Speed 35 mph    
Max Gust Speed 47 mph    
Visibility 8 miles    
Events Rain    
T = Trace of Precipitation, MM = Missing Value Source: NWS Daily Summary

Daily Weather History Graph

Daily Weather History Graph

Search for Another Location

Airport or City:

Trip Planner

Search our weather history database for the weather conditions in past years. The results will help you decide how hot, cold, wet, or windy it might be!

Date:

Astronomy

Mar. 18, 2013 Rise Set
Actual Time 7:06 AM CDT 7:10 PM CDT
Civil Twilight 6:41 AM CDT 7:35 PM CDT
Nautical Twilight 6:12 AM CDT 8:04 PM CDT
Astronomical Twilight 5:43 AM CDT 8:33 PM CDT
Moon 11:22 AM CDT 12:53 AM CDT
Length of Visible Light 12h 53m
Length of Day
12h 04m
Waxing Crescent, 41% of the Moon is Illuminated
Mar 18
Waxing Crescent
Mar 19
First Quarter
Mar 27
Full
Apr 2
Last Quarter
Apr 10
New

Hourly Weather History & Observations

Time (CDT) Temp. Dew Point Humidity Pressure Visibility Wind Dir Wind Speed Gust Speed Precip Events Conditions
12:53 AM 68.0 °F 59.0 °F 73% 29.78 in 10.0 mi South 11.5 mph - N/A   Overcast
1:53 AM 66.9 °F 59.0 °F 76% 29.77 in 10.0 mi South 10.4 mph - N/A   Overcast
2:53 AM 66.0 °F 60.1 °F 81% 29.76 in 10.0 mi South 12.7 mph - N/A   Scattered Clouds
3:53 AM 64.9 °F 61.0 °F 87% 29.76 in 9.0 mi South 11.5 mph - N/A   Mostly Cloudy
4:08 AM 66.2 °F 60.8 °F 83% 29.76 in 9.0 mi South 11.5 mph - N/A   Overcast
4:28 AM 66.2 °F 60.8 °F 83% 29.76 in 9.0 mi South 12.7 mph - N/A   Overcast
4:53 AM 66.0 °F 62.1 °F 87% 29.76 in 9.0 mi South 11.5 mph - N/A   Overcast
5:25 AM 66.2 °F 62.6 °F 88% 29.75 in 9.0 mi South 12.7 mph - N/A   Overcast
5:35 AM 64.4 °F 62.6 °F 94% 29.76 in 8.0 mi South 12.7 mph - N/A   Overcast
5:43 AM 66.2 °F 62.6 °F 88% 29.76 in 8.0 mi South 12.7 mph - N/A   Overcast
5:53 AM 64.9 °F 62.1 °F 90% 29.75 in 8.0 mi South 10.4 mph - N/A   Overcast
6:53 AM 66.0 °F 62.1 °F 87% 29.77 in 8.0 mi SSW 12.7 mph 20.7 mph N/A   Overcast
7:14 AM 66.2 °F 62.6 °F 88% 29.78 in 8.0 mi SSW 12.7 mph - N/A   Overcast
7:49 AM 66.2 °F 62.6 °F 88% 29.79 in 6.0 mi SSW 10.4 mph - N/A   Overcast
7:53 AM 66.9 °F 63.0 °F 87% 29.79 in 6.0 mi SSW 11.5 mph - N/A   Overcast
8:14 AM 66.2 °F 62.6 °F 88% 29.80 in 6.0 mi SSW 13.8 mph - N/A   Overcast
8:53 AM 68.0 °F 64.0 °F 87% 29.80 in 6.0 mi SSW 11.5 mph - N/A   Overcast
9:53 AM 69.1 °F 64.0 °F 84% 29.79 in 7.0 mi SSW 15.0 mph - N/A   Overcast
10:53 AM 70.0 °F 63.0 °F 78% 29.78 in 8.0 mi SW 13.8 mph 23.0 mph N/A   Overcast
11:35 AM 71.6 °F 62.6 °F 73% 29.79 in 10.0 mi SW 15.0 mph 19.6 mph N/A   Overcast
11:53 AM 72.0 °F 62.1 °F 71% 29.80 in 10.0 mi SW 12.7 mph - N/A   Overcast
12:48 PM 62.6 °F 53.6 °F 72% 29.86 in 2.5 mi NNW 31.1 mph 47.2 mph 0.00 in Rain Light Rain
12:53 PM 59.0 °F 54.0 °F 83% 29.86 in 3.0 mi NNW 13.8 mph 47.2 mph 0.00 in Rain Light Rain
12:57 PM 59.0 °F 55.4 °F 88% 29.86 in 6.0 mi North 15.0 mph 39.1 mph 0.02 in Rain Light Rain
1:08 PM 57.2 °F 55.4 °F 94% 29.85 in 2.0 mi North 12.7 mph 26.5 mph 0.11 in Rain Heavy Rain
1:16 PM 60.8 °F 57.2 °F 88% 29.84 in 10.0 mi North 13.8 mph 18.4 mph 0.11 in Rain Light Rain
1:53 PM 61.0 °F 55.0 °F 81% 29.86 in 10.0 mi North 6.9 mph - 0.11 in   Mostly Cloudy
2:53 PM 60.1 °F 54.0 °F 80% 29.74 in 10.0 mi NNW 5.8 mph - 0.01 in   Partly Cloudy
3:53 PM 63.0 °F 55.9 °F 78% 29.76 in 10.0 mi NW 6.9 mph - N/A   Clear
4:53 PM 68.0 °F 54.0 °F 61% 29.78 in 10.0 mi NNW 11.5 mph 19.6 mph N/A   Partly Cloudy
5:41 PM 62.6 °F 55.4 °F 77% 29.82 in 10.0 mi NNW 9.2 mph 19.6 mph N/A   Mostly Cloudy
5:53 PM 63.0 °F 55.0 °F 75% 29.82 in 10.0 mi NNW 9.2 mph 19.6 mph N/A   Overcast
6:06 PM 62.6 °F 53.6 °F 72% 29.83 in 10.0 mi NNW 12.7 mph 19.6 mph N/A   Mostly Cloudy
6:53 PM 57.9 °F 52.0 °F 81% 29.86 in 10.0 mi NNW 15.0 mph 23.0 mph N/A   Overcast
7:17 PM 55.4 °F 51.8 °F 88% 29.88 in 10.0 mi North 13.8 mph - N/A   Overcast
7:53 PM 54.0 °F 48.0 °F 80% 29.90 in 10.0 mi North 15.0 mph 24.2 mph N/A   Overcast
8:33 PM 51.8 °F 46.4 °F 82% 29.93 in 10.0 mi North 10.4 mph - N/A   Scattered Clouds
8:53 PM 51.1 °F 46.9 °F 86% 29.95 in 10.0 mi North 6.9 mph - N/A   Clear
9:53 PM 48.9 °F 45.0 °F 86% 29.99 in 10.0 mi NNE 5.8 mph - N/A   Clear
10:53 PM 48.0 °F 45.0 °F 89% 30.02 in 10.0 mi North 3.5 mph - N/A   Clear
11:53 PM 46.9 °F 45.0 °F 93% 30.03 in 10.0 mi NNE 3.5 mph - N/A   Clear